Retour au catalogue

NOAA 16 DEB

ActifPO
NORAD 41507·DEBRIS·🇺🇸 United States

Lancé Sep 21, 2000 depuis Vandenberg Space Force Base

Loading…

Prochains Passages (prochaines 24 heures)

TLE

FraisSource: Space-Track

Époque: Sep 14, 2026, 08:40 UTC

1 41507U 00055MF  26257.36169887  .00008823  00000-0  15906-2 0  9991
2 41507  98.9208  90.8239 0010358 161.1527 199.0060 14.66746078 75934

Suivez NOAA 16 DEB en temps réel avec AllMySat

Download on the App Store